Regional Weather Roundup
Issued by NWS

Home | Current Version | Previous Version | Graphics & Text | Print | Product List | Glossary On
Versions: 1 2 3 4 5 6 7 8 9 10 11 12 13 14 15 16 17 18 19 20 21 22 23 24 25 26 27 28 29 30 31 32 33 34 35 36 37 38 39 40 41 42 43 44 45 46 47 48 49 50
205
ASUS43 KLMK 210010
RWRKY
KENTUCKY REGIONAL WEATHER ROUNDUP
NATIONAL WEATHER SERVICE LOUISVILLE KY
800 PM EDT FRI OCT 20 2017

NOTE "FAIR" INDICATES FEW OR NO CLOUDS BELOW 12,000 FEET
WITH NO SIGNIFICANT WEATHER AND/OR OBSTRUCTIONS TO VISIBILITY.

KYZ001>023-026-027-061>063-070>075-210100-
WESTERN AND SOUTH CENTRAL KENTUCKY

CITY           SKY/WX    TMP DP  RH WIND       PRES   REMARKS
PADUCAH        PTCLDY    63  50  62 SE6       30.12F
HENDERSON      CLOUDY    61  50  67 SE3       30.15S
OWENSBORO      CLOUDY    68  50  52 SE6       30.16S
HOPKINSVILLE   CLOUDY    64  49  57 CALM      30.16S
BOWLING GREEN  CLEAR     64  53  67 CALM      30.18R
GLASGOW        PTCLDY    59  50  72 CALM      30.19R
$$

KYZ024-025-028>034-038-045-046-053-210100-
NORTH CENTRAL KENTUCKY

CITY           SKY/WX    TMP DP  RH WIND       PRES   REMARKS
LOUISVILLE/SDF PTCLDY    70  51  51 CALM      30.17S
LOUISVILLE/LOU CLEAR     64  53  67 CALM      30.18S
FORT KNOX      CLEAR     61  51  70 CALM      30.17R
$$

KYZ035>037-039>044-047>052-055>060-089>105-210100-
NORTHEAST KENTUCKY

CITY           SKY/WX    TMP DP  RH WIND       PRES   REMARKS
LEXINGTON      CLEAR     67  51  56 SE3       30.22R
COVINGTON      PTCLDY    64  53  67 SE5       30.20R
FRANKFORT      CLEAR     60  51  72 CALM      30.20R
$$

KYZ054-064>069-076>088-106>120-210100-
SOUTHEAST KENTUCKY

CITY           SKY/WX    TMP DP  RH WIND       PRES   REMARKS
JACKSON        CLEAR     65  51  60 CALM      30.23S
LONDON         CLEAR     60  52  74 CALM      30.22R
SOMERSET       CLEAR     61  52  72 CALM      30.23R
MIDDLESBORO    CLEAR     58  51  77 CALM      30.24R
MONTICELLO     CLEAR     54  48  82 N6        30.23R FOG
$$





USA.gov is the U.S. government's official web portal to all federal, state and local government web resources and services.